Year,Month,Day,Hour,Minute,Value (Times are PST for temperature in C)
2013,07,14,00,00,15.20
2013,07,14,00,01,15.20
2013,07,14,00,02,15.20
2013,07,14,00,03,15.20
2013,07,14,00,04,15.10
2013,07,14,00,05,15.10
2013,07,14,00,06,15.10
2013,07,14,00,07,15.10
2013,07,14,00,08,15.10
2013,07,14,00,09,15.10
2013,07,14,00,10,15.10
2013,07,14,00,11,15.10
2013,07,14,00,12,15.00
2013,07,14,00,13,15.00
2013,07,14,00,14,15.00
2013,07,14,00,15,15.00
2013,07,14,00,16,15.00
2013,07,14,00,17,15.00
2013,07,14,00,18,15.00
2013,07,14,00,19,15.00
2013,07,14,00,20,15.00
2013,07,14,00,21,15.00
2013,07,14,00,22,15.00
2013,07,14,00,23,15.00
2013,07,14,00,24,15.00
2013,07,14,00,25,15.00
2013,07,14,00,26,15.00
2013,07,14,00,27,15.00
2013,07,14,00,28,15.00
2013,07,14,00,29,15.00
2013,07,14,00,30,15.00
2013,07,14,00,31,15.00
2013,07,14,00,32,14.90
2013,07,14,00,33,14.90
2013,07,14,00,34,14.90
2013,07,14,00,35,14.90
2013,07,14,00,36,14.80
2013,07,14,00,37,14.80
2013,07,14,00,38,14.80
2013,07,14,00,39,14.80
2013,07,14,00,40,14.80
2013,07,14,00,41,14.70
2013,07,14,00,42,14.70
2013,07,14,00,43,14.70
2013,07,14,00,44,14.60
2013,07,14,00,45,14.60
2013,07,14,00,46,14.60
2013,07,14,00,47,14.50
2013,07,14,00,48,14.50
2013,07,14,00,49,14.50
2013,07,14,00,50,14.50
2013,07,14,00,51,14.40
2013,07,14,00,52,14.40
2013,07,14,00,53,14.40
2013,07,14,00,54,14.40
2013,07,14,00,55,14.40
2013,07,14,00,56,14.30
2013,07,14,00,57,14.30
2013,07,14,00,58,14.30
2013,07,14,00,59,14.20
2013,07,14,01,00,14.20
2013,07,14,01,01,14.20
2013,07,14,01,02,14.20
2013,07,14,01,03,14.20
2013,07,14,01,04,14.20
2013,07,14,01,05,14.20
2013,07,14,01,06,14.20
2013,07,14,01,07,14.30
2013,07,14,01,08,14.30
2013,07,14,01,09,14.30
2013,07,14,01,10,14.30
2013,07,14,01,11,14.30
2013,07,14,01,12,14.30
2013,07,14,01,13,14.30
2013,07,14,01,14,14.30
2013,07,14,01,15,14.30
2013,07,14,01,16,14.30
2013,07,14,01,17,14.30
2013,07,14,01,18,14.20
2013,07,14,01,19,14.20
2013,07,14,01,20,14.20
2013,07,14,01,21,14.20
2013,07,14,01,22,14.20
2013,07,14,01,23,14.20
2013,07,14,01,24,14.20
2013,07,14,01,25,14.10
2013,07,14,01,26,14.10
2013,07,14,01,27,14.00
2013,07,14,01,28,14.00
2013,07,14,01,29,14.00
2013,07,14,01,30,14.00
2013,07,14,01,31,13.90
2013,07,14,01,32,13.90
2013,07,14,01,33,13.80
2013,07,14,01,34,13.80
2013,07,14,01,35,13.70
2013,07,14,01,36,13.70
2013,07,14,01,37,13.70
2013,07,14,01,38,13.70
2013,07,14,01,39,13.60
2013,07,14,01,40,13.60
2013,07,14,01,41,13.60
2013,07,14,01,42,13.50
2013,07,14,01,43,13.50
2013,07,14,01,44,13.50
2013,07,14,01,45,13.50
2013,07,14,01,46,13.40
2013,07,14,01,47,13.40
2013,07,14,01,48,13.40
2013,07,14,01,49,13.30
2013,07,14,01,50,13.30
2013,07,14,01,51,13.30
2013,07,14,01,52,13.30
2013,07,14,01,53,13.30
2013,07,14,01,54,13.30
2013,07,14,01,55,13.30
2013,07,14,01,56,13.30
2013,07,14,01,57,13.30
2013,07,14,01,58,13.30
2013,07,14,01,59,13.30
2013,07,14,02,00,13.30
2013,07,14,02,01,13.30
2013,07,14,02,02,13.30
2013,07,14,02,03,13.30
2013,07,14,02,04,13.20
2013,07,14,02,05,13.20
2013,07,14,02,06,13.20
2013,07,14,02,07,13.20
2013,07,14,02,08,13.20
2013,07,14,02,09,13.20
2013,07,14,02,10,13.20
2013,07,14,02,11,13.20
2013,07,14,02,12,13.20
2013,07,14,02,13,13.20
2013,07,14,02,14,13.30
2013,07,14,02,15,13.30
2013,07,14,02,16,13.30
2013,07,14,02,17,13.30
2013,07,14,02,18,13.30
2013,07,14,02,19,13.30
2013,07,14,02,20,13.40
2013,07,14,02,21,13.40
2013,07,14,02,22,13.40
2013,07,14,02,23,13.40
2013,07,14,02,24,13.40
2013,07,14,02,25,13.40
2013,07,14,02,26,13.40
2013,07,14,02,27,13.40
2013,07,14,02,28,13.40
2013,07,14,02,29,13.40
2013,07,14,02,30,13.30
2013,07,14,02,31,13.30
2013,07,14,02,32,13.30
2013,07,14,02,33,13.30
2013,07,14,02,34,13.30
2013,07,14,02,35,13.30
2013,07,14,02,36,13.30
2013,07,14,02,37,13.30
2013,07,14,02,38,13.30
2013,07,14,02,39,13.30
2013,07,14,02,40,13.40
2013,07,14,02,41,13.40
2013,07,14,02,42,13.40
2013,07,14,02,43,13.30
2013,07,14,02,44,13.30
2013,07,14,02,45,13.30
2013,07,14,02,46,13.30
2013,07,14,02,47,13.30
2013,07,14,02,48,13.30
2013,07,14,02,49,13.30
2013,07,14,02,50,13.30
2013,07,14,02,51,13.30
2013,07,14,02,52,13.30
2013,07,14,02,53,13.30
2013,07,14,02,54,13.30
2013,07,14,02,55,13.30
2013,07,14,02,56,13.30
2013,07,14,02,57,13.30
2013,07,14,02,58,13.30
2013,07,14,02,59,13.30
2013,07,14,03,00,13.30
2013,07,14,03,01,13.20
2013,07,14,03,02,13.20
2013,07,14,03,03,13.20
2013,07,14,03,04,13.20
2013,07,14,03,05,13.20
2013,07,14,03,06,13.20
2013,07,14,03,07,13.20
2013,07,14,03,08,13.20
2013,07,14,03,09,13.20
2013,07,14,03,10,13.20
2013,07,14,03,11,13.20
2013,07,14,03,12,13.10
2013,07,14,03,13,13.10
2013,07,14,03,14,13.10
2013,07,14,03,15,13.10
2013,07,14,03,16,13.10
2013,07,14,03,17,13.10
2013,07,14,03,18,13.10
2013,07,14,03,19,13.10
2013,07,14,03,20,13.10
2013,07,14,03,21,13.10
2013,07,14,03,22,13.10
2013,07,14,03,23,13.10
2013,07,14,03,24,13.10
2013,07,14,03,25,13.10
2013,07,14,03,26,13.10
2013,07,14,03,27,13.10
2013,07,14,03,28,13.10
2013,07,14,03,29,13.10
2013,07,14,03,30,13.10
2013,07,14,03,31,13.10
2013,07,14,03,32,13.00
2013,07,14,03,33,13.00
2013,07,14,03,34,13.00
2013,07,14,03,35,13.00
2013,07,14,03,36,13.00
2013,07,14,03,37,12.90
2013,07,14,03,38,12.90
2013,07,14,03,39,12.90
2013,07,14,03,40,12.90
2013,07,14,03,41,12.80
2013,07,14,03,42,12.80
2013,07,14,03,43,12.80
2013,07,14,03,44,12.80
2013,07,14,03,45,12.80
2013,07,14,03,46,12.80
2013,07,14,03,47,12.80
2013,07,14,03,48,12.80
2013,07,14,03,49,12.70
2013,07,14,03,50,12.70
2013,07,14,03,51,12.70
2013,07,14,03,52,12.70
2013,07,14,03,53,12.70
2013,07,14,03,54,12.60
2013,07,14,03,55,12.60
2013,07,14,03,56,12.60
2013,07,14,03,57,12.60
2013,07,14,03,58,12.60
2013,07,14,03,59,12.60
2013,07,14,04,00,12.60
2013,07,14,04,01,12.50
2013,07,14,04,02,12.50
2013,07,14,04,03,12.50
2013,07,14,04,04,12.50
2013,07,14,04,05,12.50
2013,07,14,04,06,12.50
2013,07,14,04,07,12.50
2013,07,14,04,08,12.50
2013,07,14,04,09,12.50
2013,07,14,04,10,12.50
2013,07,14,04,11,12.50
2013,07,14,04,12,12.50
2013,07,14,04,13,12.50
2013,07,14,04,14,12.50
2013,07,14,04,15,12.50
2013,07,14,04,16,12.50
2013,07,14,04,17,12.50
2013,07,14,04,18,12.50
2013,07,14,04,19,12.40
2013,07,14,04,20,12.40
2013,07,14,04,21,12.40
2013,07,14,04,22,12.30
2013,07,14,04,23,12.30
2013,07,14,04,24,12.30
2013,07,14,04,25,12.40
2013,07,14,04,26,12.40
2013,07,14,04,27,12.50
2013,07,14,04,28,12.50
2013,07,14,04,29,12.50
2013,07,14,04,30,12.50
2013,07,14,04,31,12.50
2013,07,14,04,32,12.60
2013,07,14,04,33,12.60
2013,07,14,04,34,12.60
2013,07,14,04,35,12.60
2013,07,14,04,36,12.60
2013,07,14,04,37,12.60
2013,07,14,04,38,12.60
2013,07,14,04,39,12.60
2013,07,14,04,40,12.60
2013,07,14,04,41,12.60
2013,07,14,04,42,12.60
2013,07,14,04,43,12.60
2013,07,14,04,44,12.60
2013,07,14,04,45,12.60
2013,07,14,04,46,12.60
2013,07,14,04,47,12.60
2013,07,14,04,48,12.60
2013,07,14,04,49,12.50
2013,07,14,04,50,12.50
2013,07,14,04,51,12.50
2013,07,14,04,52,12.50
2013,07,14,04,53,12.40
2013,07,14,04,54,12.40
2013,07,14,04,55,12.30
2013,07,14,04,56,12.30
2013,07,14,04,57,12.30
2013,07,14,04,58,12.30
2013,07,14,04,59,12.30
2013,07,14,05,00,12.30
2013,07,14,05,01,12.30
2013,07,14,05,02,12.30
2013,07,14,05,03,12.30
2013,07,14,05,04,12.20
2013,07,14,05,05,12.20
2013,07,14,05,06,12.20
2013,07,14,05,07,12.20
2013,07,14,05,08,12.20
2013,07,14,05,09,12.20
2013,07,14,05,10,12.20
2013,07,14,05,11,12.20
2013,07,14,05,12,12.20
2013,07,14,05,13,12.20
2013,07,14,05,14,12.10
2013,07,14,05,15,12.10
2013,07,14,05,16,12.10
2013,07,14,05,17,12.10
2013,07,14,05,18,12.10
2013,07,14,05,19,12.00
2013,07,14,05,20,12.00
2013,07,14,05,21,12.00
2013,07,14,05,22,11.90
2013,07,14,05,23,11.90
2013,07,14,05,24,11.90
2013,07,14,05,25,11.80
2013,07,14,05,26,11.80
2013,07,14,05,27,11.80
2013,07,14,05,28,11.80
2013,07,14,05,29,11.80
2013,07,14,05,30,11.80
2013,07,14,05,31,11.80
2013,07,14,05,32,11.80
2013,07,14,05,33,11.80
2013,07,14,05,34,11.80
2013,07,14,05,35,11.70
2013,07,14,05,36,11.70
2013,07,14,05,37,11.70
2013,07,14,05,38,11.70
2013,07,14,05,39,11.70
2013,07,14,05,40,11.70
2013,07,14,05,41,11.70
2013,07,14,05,42,11.70
2013,07,14,05,43,11.70
2013,07,14,05,44,11.80
2013,07,14,05,45,11.80
2013,07,14,05,46,11.80
2013,07,14,05,47,11.80
2013,07,14,05,48,11.80
2013,07,14,05,49,11.80
2013,07,14,05,50,11.80
2013,07,14,05,51,11.80
2013,07,14,05,52,11.80
2013,07,14,05,53,11.80
2013,07,14,05,54,11.90
2013,07,14,05,55,11.90
2013,07,14,05,56,12.00
2013,07,14,05,57,12.00
2013,07,14,05,58,12.00
2013,07,14,05,59,12.10
2013,07,14,06,00,12.10
2013,07,14,06,01,12.20
2013,07,14,06,02,12.30
2013,07,14,06,03,12.30
2013,07,14,06,04,12.30
2013,07,14,06,05,12.40
2013,07,14,06,06,12.50
2013,07,14,06,07,12.50
2013,07,14,06,08,12.50
2013,07,14,06,09,12.60
2013,07,14,06,10,12.60
2013,07,14,06,11,12.60
2013,07,14,06,12,12.70
2013,07,14,06,13,12.70
2013,07,14,06,14,12.70
2013,07,14,06,15,12.80
2013,07,14,06,16,12.80
2013,07,14,06,17,12.80
2013,07,14,06,18,12.80
2013,07,14,06,19,12.90
2013,07,14,06,20,12.90
2013,07,14,06,21,13.00
2013,07,14,06,22,13.00
2013,07,14,06,23,13.10
2013,07,14,06,24,13.10
2013,07,14,06,25,13.20
2013,07,14,06,26,13.20
2013,07,14,06,27,13.30
2013,07,14,06,28,13.30
2013,07,14,06,29,13.30
2013,07,14,06,30,13.40
2013,07,14,06,31,13.50
2013,07,14,06,32,13.60
2013,07,14,06,33,13.70
2013,07,14,06,34,13.70
2013,07,14,06,35,13.80
2013,07,14,06,36,13.90
2013,07,14,06,37,14.00
2013,07,14,06,38,14.00
2013,07,14,06,39,14.10
2013,07,14,06,40,14.20
2013,07,14,06,41,14.20
2013,07,14,06,42,14.30
2013,07,14,06,43,14.40
2013,07,14,06,44,14.50
2013,07,14,06,45,14.50
2013,07,14,06,46,14.60
2013,07,14,06,47,14.60
2013,07,14,06,48,14.60
2013,07,14,06,49,14.70
2013,07,14,06,50,14.70
2013,07,14,06,51,14.70
2013,07,14,06,52,14.70
2013,07,14,06,53,14.70
2013,07,14,06,54,14.70
2013,07,14,06,55,14.80
2013,07,14,06,56,14.80
2013,07,14,06,57,14.80
2013,07,14,06,58,14.80
2013,07,14,06,59,14.80
2013,07,14,07,00,14.80
2013,07,14,07,01,14.80
2013,07,14,07,02,14.90
2013,07,14,07,03,15.00
2013,07,14,07,04,15.10
2013,07,14,07,05,15.20
2013,07,14,07,06,15.30
2013,07,14,07,07,15.40
2013,07,14,07,08,15.50
2013,07,14,07,09,15.60
2013,07,14,07,10,15.70
2013,07,14,07,11,15.80
2013,07,14,07,12,15.90
2013,07,14,07,13,16.00
2013,07,14,07,14,16.10
2013,07,14,07,15,16.10
2013,07,14,07,16,16.20
2013,07,14,07,17,16.30
2013,07,14,07,18,16.30
2013,07,14,07,19,16.40
2013,07,14,07,20,16.50
2013,07,14,07,21,16.60
2013,07,14,07,22,16.70
2013,07,14,07,23,16.70
2013,07,14,07,24,16.80
2013,07,14,07,25,16.80
2013,07,14,07,26,16.90
2013,07,14,07,27,16.90
2013,07,14,07,28,16.90
2013,07,14,07,29,16.90
2013,07,14,07,30,17.00
2013,07,14,07,31,17.00
2013,07,14,07,32,17.10
2013,07,14,07,33,17.10
2013,07,14,07,34,17.20
2013,07,14,07,35,17.20
2013,07,14,07,36,17.30
2013,07,14,07,37,17.30
2013,07,14,07,38,17.30
2013,07,14,07,39,17.30
2013,07,14,07,40,17.40
2013,07,14,07,41,17.40
2013,07,14,07,42,17.50
2013,07,14,07,43,17.50
2013,07,14,07,44,17.50
2013,07,14,07,45,17.60
2013,07,14,07,46,17.60
2013,07,14,07,47,17.60
2013,07,14,07,48,17.70
2013,07,14,07,49,17.70
2013,07,14,07,50,17.80
2013,07,14,07,51,17.90
2013,07,14,07,52,17.90
2013,07,14,07,53,17.90
2013,07,14,07,54,18.00
2013,07,14,07,55,18.10
2013,07,14,07,56,18.10
2013,07,14,07,57,18.20
2013,07,14,07,58,18.20
2013,07,14,07,59,18.20
2013,07,14,08,00,18.20
2013,07,14,08,01,18.20
2013,07,14,08,02,18.20
2013,07,14,08,03,18.20
2013,07,14,08,04,18.20
2013,07,14,08,05,18.20
2013,07,14,08,06,18.20
2013,07,14,08,07,18.20
2013,07,14,08,08,18.20
2013,07,14,08,09,18.20
2013,07,14,08,10,18.20
2013,07,14,08,11,18.20
2013,07,14,08,12,18.20
2013,07,14,08,13,18.30
2013,07,14,08,14,18.40
2013,07,14,08,15,18.50
2013,07,14,08,16,18.50
2013,07,14,08,17,18.60
2013,07,14,08,18,18.70
2013,07,14,08,19,18.70
2013,07,14,08,20,18.80
2013,07,14,08,21,18.80
2013,07,14,08,22,18.80
2013,07,14,08,23,18.90
2013,07,14,08,24,18.90
2013,07,14,08,25,18.90
2013,07,14,08,26,18.90
2013,07,14,08,27,18.90
2013,07,14,08,28,18.90
2013,07,14,08,29,18.90
2013,07,14,08,30,19.00
2013,07,14,08,31,19.10
2013,07,14,08,32,19.10
2013,07,14,08,33,19.20
2013,07,14,08,34,19.30
2013,07,14,08,35,19.40
2013,07,14,08,36,19.40
2013,07,14,08,37,19.50
2013,07,14,08,38,19.60
2013,07,14,08,39,19.40
2013,07,14,08,40,19.20
2013,07,14,08,41,19.10
2013,07,14,08,42,19.10
2013,07,14,08,43,19.00
2013,07,14,08,44,18.90
2013,07,14,08,45,18.80
2013,07,14,08,46,18.60
2013,07,14,08,47,18.50
2013,07,14,08,48,18.40
2013,07,14,08,49,18.40
2013,07,14,08,50,18.40
2013,07,14,08,51,18.40
2013,07,14,08,52,18.40
2013,07,14,08,53,18.30
2013,07,14,08,54,18.30
2013,07,14,08,55,18.40
2013,07,14,08,56,18.30
2013,07,14,08,57,18.30
2013,07,14,08,58,18.30
2013,07,14,08,59,18.30
2013,07,14,09,00,18.30
2013,07,14,09,01,18.40
2013,07,14,09,02,18.40
2013,07,14,09,03,18.40
2013,07,14,09,04,18.40
2013,07,14,09,05,18.40
2013,07,14,09,06,18.50
2013,07,14,09,07,18.50
2013,07,14,09,08,18.50
2013,07,14,09,09,18.60
2013,07,14,09,10,18.70
2013,07,14,09,11,18.80
2013,07,14,09,12,18.80
2013,07,14,09,13,18.80
2013,07,14,09,14,18.80
2013,07,14,09,15,18.70
2013,07,14,09,16,18.80
2013,07,14,09,17,18.80
2013,07,14,09,18,18.70
2013,07,14,09,19,18.80
2013,07,14,09,20,18.80
2013,07,14,09,21,18.80
2013,07,14,09,22,18.90
2013,07,14,09,23,18.90
2013,07,14,09,24,18.80
2013,07,14,09,25,18.80
2013,07,14,09,26,18.80
2013,07,14,09,27,18.80
2013,07,14,09,28,18.90
2013,07,14,09,29,18.90
2013,07,14,09,30,18.80
2013,07,14,09,31,18.70
2013,07,14,09,32,18.60
2013,07,14,09,33,18.60
2013,07,14,09,34,18.70
2013,07,14,09,35,18.70
2013,07,14,09,36,18.80
2013,07,14,09,37,18.80
2013,07,14,09,38,18.80
2013,07,14,09,39,18.80
2013,07,14,09,40,18.80
2013,07,14,09,41,18.90
2013,07,14,09,42,19.00
2013,07,14,09,43,19.10
2013,07,14,09,44,19.10
2013,07,14,09,45,19.10
2013,07,14,09,46,19.20
2013,07,14,09,47,19.30
2013,07,14,09,48,19.40
2013,07,14,09,49,19.40
2013,07,14,09,50,19.50
2013,07,14,09,51,19.50
2013,07,14,09,52,19.50
2013,07,14,09,53,19.60
2013,07,14,09,54,19.60
2013,07,14,09,55,19.70
2013,07,14,09,56,19.80
2013,07,14,09,57,19.90
2013,07,14,09,58,19.90
2013,07,14,09,59,19.90
2013,07,14,10,00,20.00
2013,07,14,10,01,20.10
2013,07,14,10,02,20.20
2013,07,14,10,03,20.20
2013,07,14,10,04,20.30
2013,07,14,10,05,20.30
2013,07,14,10,06,20.40
2013,07,14,10,07,20.50
2013,07,14,10,08,20.60
2013,07,14,10,09,20.60
2013,07,14,10,10,20.70
2013,07,14,10,11,20.60
2013,07,14,10,12,20.60
2013,07,14,10,13,20.40
2013,07,14,10,14,20.10
2013,07,14,10,15,19.70
2013,07,14,10,16,19.30
2013,07,14,10,17,19.10
2013,07,14,10,18,18.90
2013,07,14,10,19,18.70
2013,07,14,10,20,18.70
2013,07,14,10,21,18.70
2013,07,14,10,22,18.70
2013,07,14,10,23,18.70
2013,07,14,10,24,18.70
2013,07,14,10,25,18.70
2013,07,14,10,26,18.70
2013,07,14,10,27,18.50
2013,07,14,10,28,18.40
2013,07,14,10,29,18.30
2013,07,14,10,30,18.30
2013,07,14,10,31,18.30
2013,07,14,10,32,18.20
2013,07,14,10,33,18.10
2013,07,14,10,34,18.10
2013,07,14,10,35,18.10
2013,07,14,10,36,18.20
2013,07,14,10,37,18.20
2013,07,14,10,38,18.30
2013,07,14,10,39,18.50
2013,07,14,10,40,18.50
2013,07,14,10,41,18.60
2013,07,14,10,42,18.60
2013,07,14,10,43,18.70
2013,07,14,10,44,18.70
2013,07,14,10,45,18.70
2013,07,14,10,46,18.80
2013,07,14,10,47,18.90
2013,07,14,10,48,18.90
2013,07,14,10,49,18.80
2013,07,14,10,50,18.60
2013,07,14,10,51,18.60
2013,07,14,10,52,18.50
2013,07,14,10,53,18.60
2013,07,14,10,54,18.50
2013,07,14,10,55,18.40
2013,07,14,10,56,18.40
2013,07,14,10,57,18.30
2013,07,14,10,58,18.50
2013,07,14,10,59,18.50
2013,07,14,11,00,18.50
2013,07,14,11,01,18.50
2013,07,14,11,02,18.50
2013,07,14,11,03,18.50
2013,07,14,11,04,18.60
2013,07,14,11,05,18.70
2013,07,14,11,06,18.80
2013,07,14,11,07,18.90
2013,07,14,11,08,18.90
2013,07,14,11,09,18.70
2013,07,14,11,10,18.70
2013,07,14,11,11,18.70
2013,07,14,11,12,18.80
2013,07,14,11,13,19.00
2013,07,14,11,14,19.10
2013,07,14,11,15,19.00
2013,07,14,11,16,18.90
2013,07,14,11,17,18.90
2013,07,14,11,18,18.80
2013,07,14,11,19,18.70
2013,07,14,11,20,18.70
2013,07,14,11,21,18.70
2013,07,14,11,22,18.70
2013,07,14,11,23,18.80
2013,07,14,11,24,18.80
2013,07,14,11,25,18.90
2013,07,14,11,26,18.90
2013,07,14,11,27,18.90
2013,07,14,11,28,19.00
2013,07,14,11,29,19.10
2013,07,14,11,30,19.10
2013,07,14,11,31,19.30
2013,07,14,11,32,19.30
2013,07,14,11,33,19.20
2013,07,14,11,34,19.20
2013,07,14,11,35,19.10
2013,07,14,11,36,19.00
2013,07,14,11,37,19.00
2013,07,14,11,38,19.10
2013,07,14,11,39,19.10
2013,07,14,11,40,19.10
2013,07,14,11,41,19.20
2013,07,14,11,42,19.10
2013,07,14,11,43,19.20
2013,07,14,11,44,19.30
2013,07,14,11,45,19.40
2013,07,14,11,46,19.50
2013,07,14,11,47,19.40
2013,07,14,11,48,19.30
2013,07,14,11,49,19.30
2013,07,14,11,50,19.40
2013,07,14,11,51,19.60
2013,07,14,11,52,19.60
2013,07,14,11,53,19.60
2013,07,14,11,54,19.50
2013,07,14,11,55,19.50
2013,07,14,11,56,19.40
2013,07,14,11,57,19.30
2013,07,14,11,58,19.30
2013,07,14,11,59,19.30
2013,07,14,12,00,19.30
2013,07,14,12,01,19.30
2013,07,14,12,02,19.30
2013,07,14,12,03,19.40
2013,07,14,12,04,19.30
2013,07,14,12,05,19.30
2013,07,14,12,06,19.30
2013,07,14,12,07,19.30
2013,07,14,12,08,19.30
2013,07,14,12,09,19.40
2013,07,14,12,10,19.50
2013,07,14,12,11,19.60
2013,07,14,12,12,19.50
2013,07,14,12,13,19.50
2013,07,14,12,14,19.50
2013,07,14,12,15,19.50
2013,07,14,12,16,19.50
2013,07,14,12,17,19.50
2013,07,14,12,18,19.50
2013,07,14,12,19,19.60
2013,07,14,12,20,19.80
2013,07,14,12,21,19.90
2013,07,14,12,22,19.80
2013,07,14,12,23,19.60
2013,07,14,12,24,19.40
2013,07,14,12,25,19.30
2013,07,14,12,26,19.20
2013,07,14,12,27,19.20
2013,07,14,12,28,19.20
2013,07,14,12,29,19.30
2013,07,14,12,30,19.40
2013,07,14,12,31,19.40
2013,07,14,12,32,19.50
2013,07,14,12,33,19.40
2013,07,14,12,34,19.30
2013,07,14,12,35,19.30
2013,07,14,12,36,19.40
2013,07,14,12,37,19.50
2013,07,14,12,38,19.60
2013,07,14,12,39,19.70
2013,07,14,12,40,19.70
2013,07,14,12,41,19.60
2013,07,14,12,42,19.60
2013,07,14,12,43,19.50
2013,07,14,12,44,19.30
2013,07,14,12,45,19.10
2013,07,14,12,46,19.10
2013,07,14,12,47,19.20
2013,07,14,12,48,19.30
2013,07,14,12,49,19.30
2013,07,14,12,50,19.20
2013,07,14,12,51,19.10
2013,07,14,12,52,19.10
2013,07,14,12,53,19.20
2013,07,14,12,54,19.30
2013,07,14,12,55,19.40
2013,07,14,12,56,19.60
2013,07,14,12,57,19.70
2013,07,14,12,58,19.60
2013,07,14,12,59,19.50
2013,07,14,13,00,19.20
2013,07,14,13,01,18.90
2013,07,14,13,02,18.70
2013,07,14,13,03,18.50
2013,07,14,13,04,18.50
2013,07,14,13,05,18.60
2013,07,14,13,06,18.50
2013,07,14,13,07,18.50
2013,07,14,13,08,18.50
2013,07,14,13,09,18.50
2013,07,14,13,10,18.60
2013,07,14,13,11,18.50
2013,07,14,13,12,18.50
2013,07,14,13,13,18.50
2013,07,14,13,14,18.50
2013,07,14,13,15,18.40
2013,07,14,13,16,18.40
2013,07,14,13,17,18.50
2013,07,14,13,18,18.50
2013,07,14,13,19,18.50
2013,07,14,13,20,18.50
2013,07,14,13,21,18.60
2013,07,14,13,22,18.70
2013,07,14,13,23,18.70
2013,07,14,13,24,18.60
2013,07,14,13,25,18.60
2013,07,14,13,26,18.70
2013,07,14,13,27,18.80
2013,07,14,13,28,18.80
2013,07,14,13,29,18.80
2013,07,14,13,30,18.80
2013,07,14,13,31,18.90
2013,07,14,13,32,18.90
2013,07,14,13,33,19.10
2013,07,14,13,34,19.10
2013,07,14,13,35,19.10
2013,07,14,13,36,18.90
2013,07,14,13,37,18.90
2013,07,14,13,38,18.80
2013,07,14,13,39,18.70
2013,07,14,13,40,18.70
2013,07,14,13,41,18.60
2013,07,14,13,42,18.60
2013,07,14,13,43,18.60
2013,07,14,13,44,18.60
2013,07,14,13,45,18.50
2013,07,14,13,46,18.40
2013,07,14,13,47,18.20
2013,07,14,13,48,18.00
2013,07,14,13,49,17.80
2013,07,14,13,50,17.80
2013,07,14,13,51,17.80
2013,07,14,13,52,17.90
2013,07,14,13,53,18.10
2013,07,14,13,54,18.20
2013,07,14,13,55,18.20
2013,07,14,13,56,18.20
2013,07,14,13,57,18.30
2013,07,14,13,58,18.30
2013,07,14,13,59,18.20
2013,07,14,14,00,18.00
2013,07,14,14,01,17.80
2013,07,14,14,02,17.50
2013,07,14,14,03,17.30
2013,07,14,14,04,17.20
2013,07,14,14,05,17.10
2013,07,14,14,06,17.10
2013,07,14,14,07,17.30
2013,07,14,14,08,17.30
2013,07,14,14,09,17.30
2013,07,14,14,10,17.20
2013,07,14,14,11,17.20
2013,07,14,14,12,17.20
2013,07,14,14,13,17.20
2013,07,14,14,14,17.30
2013,07,14,14,15,17.30
2013,07,14,14,16,17.20
2013,07,14,14,17,17.10
2013,07,14,14,18,17.10
2013,07,14,14,19,17.00
2013,07,14,14,20,16.90
2013,07,14,14,21,16.90
2013,07,14,14,22,16.90
2013,07,14,14,23,16.90
2013,07,14,14,24,16.90
2013,07,14,14,25,16.90
2013,07,14,14,26,16.80
2013,07,14,14,27,16.70
2013,07,14,14,28,16.60
2013,07,14,14,29,16.60
2013,07,14,14,30,16.70
2013,07,14,14,31,16.70
2013,07,14,14,32,16.80
2013,07,14,14,33,16.90
2013,07,14,14,34,17.00
2013,07,14,14,35,16.90
2013,07,14,14,36,16.80
2013,07,14,14,37,16.70
2013,07,14,14,38,16.50
2013,07,14,14,39,16.40
2013,07,14,14,40,16.40
2013,07,14,14,41,16.30
2013,07,14,14,42,16.20
2013,07,14,14,43,16.20
2013,07,14,14,44,16.30
2013,07,14,14,45,16.30
2013,07,14,14,46,16.30
2013,07,14,14,47,16.10
2013,07,14,14,48,16.10
2013,07,14,14,49,16.10
2013,07,14,14,50,16.10
2013,07,14,14,51,16.10
2013,07,14,14,52,16.20
2013,07,14,14,53,16.20
2013,07,14,14,54,16.20
2013,07,14,14,55,16.10
2013,07,14,14,56,16.00
2013,07,14,14,57,15.80
2013,07,14,14,58,15.80
2013,07,14,14,59,15.70
2013,07,14,15,00,15.80
2013,07,14,15,01,15.90
2013,07,14,15,02,15.90
2013,07,14,15,03,15.90
2013,07,14,15,04,15.90
2013,07,14,15,05,15.90
2013,07,14,15,06,15.90
2013,07,14,15,07,15.90
2013,07,14,15,08,15.80
2013,07,14,15,09,15.70
2013,07,14,15,10,15.60
2013,07,14,15,11,15.60
2013,07,14,15,12,15.60
2013,07,14,15,13,15.60
2013,07,14,15,14,15.40
2013,07,14,15,15,15.20
2013,07,14,15,16,15.10
2013,07,14,15,17,15.00
2013,07,14,15,18,15.00
2013,07,14,15,19,14.90
2013,07,14,15,20,14.70
2013,07,14,15,21,14.60
2013,07,14,15,22,14.60
2013,07,14,15,23,14.70
2013,07,14,15,24,14.70
2013,07,14,15,25,14.70
2013,07,14,15,26,14.60
2013,07,14,15,27,14.70
2013,07,14,15,28,14.80
2013,07,14,15,29,14.90
2013,07,14,15,30,14.90
2013,07,14,15,31,14.90
2013,07,14,15,32,14.80
2013,07,14,15,33,14.80
2013,07,14,15,34,14.70
2013,07,14,15,35,14.80
2013,07,14,15,36,14.80
2013,07,14,15,37,14.90
2013,07,14,15,38,14.90
2013,07,14,15,39,14.90
2013,07,14,15,40,14.80
2013,07,14,15,41,14.80
2013,07,14,15,42,14.70
2013,07,14,15,43,14.70
2013,07,14,15,44,14.70
2013,07,14,15,45,14.80
2013,07,14,15,46,14.80
2013,07,14,15,47,14.80
2013,07,14,15,48,14.80
2013,07,14,15,49,14.90
2013,07,14,15,50,15.00
2013,07,14,15,51,15.10
2013,07,14,15,52,15.20
2013,07,14,15,53,15.40
2013,07,14,15,54,15.50
2013,07,14,15,55,15.60
2013,07,14,15,56,15.80
2013,07,14,15,57,16.00
2013,07,14,15,58,16.10
2013,07,14,15,59,16.30
2013,07,14,16,00,16.50
2013,07,14,16,01,16.70
2013,07,14,16,02,16.90
2013,07,14,16,03,17.10
2013,07,14,16,04,17.30
2013,07,14,16,05,17.40
2013,07,14,16,06,17.60
2013,07,14,16,07,17.90
2013,07,14,16,08,18.20
2013,07,14,16,09,18.50
2013,07,14,16,10,18.80
2013,07,14,16,11,19.10
2013,07,14,16,12,19.40
2013,07,14,16,13,19.70
2013,07,14,16,14,20.10
2013,07,14,16,15,20.40
2013,07,14,16,16,20.70
2013,07,14,16,17,21.00
2013,07,14,16,18,21.40
2013,07,14,16,19,21.70
2013,07,14,16,20,22.00
2013,07,14,16,21,22.20
2013,07,14,16,22,22.50
2013,07,14,16,23,22.70
2013,07,14,16,24,22.90
2013,07,14,16,25,23.10
2013,07,14,16,26,23.30
2013,07,14,16,27,23.30
2013,07,14,16,28,23.50
2013,07,14,16,29,23.60
2013,07,14,16,30,23.70
2013,07,14,16,31,23.80
2013,07,14,16,32,23.80
2013,07,14,16,33,23.90
2013,07,14,16,34,24.10
2013,07,14,16,35,24.10
2013,07,14,16,36,24.10
2013,07,14,16,37,24.10
2013,07,14,16,38,24.10
2013,07,14,16,39,24.20
2013,07,14,16,40,24.20
2013,07,14,16,41,24.30
2013,07,14,16,42,24.30
2013,07,14,16,43,24.40
2013,07,14,16,44,24.40
2013,07,14,16,45,24.40
2013,07,14,16,46,24.40
2013,07,14,16,47,24.30
2013,07,14,16,48,24.30
2013,07,14,16,49,24.20
2013,07,14,16,50,24.30
2013,07,14,16,51,24.40
2013,07,14,16,52,24.40
2013,07,14,16,53,24.50
2013,07,14,16,54,24.60
2013,07,14,16,55,24.60
2013,07,14,16,56,24.70
2013,07,14,16,57,24.70
2013,07,14,16,58,24.70
2013,07,14,16,59,24.70
2013,07,14,17,00,24.60
2013,07,14,17,01,24.50
2013,07,14,17,02,24.50
2013,07,14,17,03,24.50
2013,07,14,17,04,24.50
2013,07,14,17,05,24.50
2013,07,14,17,06,24.60
2013,07,14,17,07,24.60
2013,07,14,17,08,24.50
2013,07,14,17,09,24.40
2013,07,14,17,10,24.40
2013,07,14,17,11,24.30
2013,07,14,17,12,24.30
2013,07,14,17,13,24.30
2013,07,14,17,14,24.30
2013,07,14,17,15,24.30
2013,07,14,17,16,24.30
2013,07,14,17,17,24.30
2013,07,14,17,18,24.30
2013,07,14,17,19,24.30